Staples, MN

6:27 AM CDT on May 29, 2017 (GMT -0500)
Staples Municipal

Weather History for KSAZ - November, 2012

Change the Weather History Date:

Sunday, November 18, 2012

  Actual Average Record
Temperature  
Mean Temperature 45 °F -  
Max Temperature 51 °F 33 °F 53 °F (2001)
Min Temperature 39 °F 18 °F 1 °F (1996)
Degree Days  
Heating Degree Days 20    
Moisture  
Dew Point 33 °F    
Average Humidity 61    
Maximum Humidity 75    
Minimum Humidity 50    
Precipitation  
Precipitation 0.00 in - - ()
Sea Level Pressure  
Sea Level Pressure 30.02 in    
Wind  
Wind Speed 9 mph (SSE)    
Max Wind Speed 14 mph    
Max Gust Speed 17 mph    
Visibility 10 miles    
Events      
Averages and records for this station are not official NWS values.
T = Trace of Precipitation, MM = Missing Value Source: NWS Daily Summary

Daily Weather History Graph

Daily Weather History Graph

Search for Another Location

Airport or City:

Trip Planner

Search our weather history database for the weather conditions in past years. The results will help you decide how hot, cold, wet, or windy it might be!

Date:

Astronomy

Nov. 18, 2012 Rise Set
Actual Time 7:25 AM CST 4:42 PM CST
Civil Twilight 6:52 AM CST 5:15 PM CST
Nautical Twilight 6:15 AM CST 5:52 PM CST
Astronomical Twilight 5:40 AM CST 6:28 PM CST
Moon 11:49 AM CST (11/18) 10:08 PM CST (11/18)
Length of Visible Light 10h 23m
Length of Day
9h 17m
Waxing Crescent, 30% of the Moon is Illuminated
Nov 18
Waxing Crescent
Nov 20
First Quarter
Nov 28
Full
Dec 6
Last Quarter
Dec 13
New

Hourly Weather History & Observations

Time (CST) Temp. Windchill Dew Point Humidity Pressure Visibility Wind Dir Wind Speed Gust Speed Precip Events Conditions
12:14 AM 44.6 °F 40.2 °F 32.0 °F 61% 30.08 in 10.0 mi SSE 8.1 mph - N/A   Clear
12:33 AM 44.6 °F 40.7 °F 32.0 °F 61% 30.08 in 10.0 mi SSE 6.9 mph - N/A   Clear
12:53 AM 44.6 °F 39.2 °F 33.8 °F 66% 30.08 in 10.0 mi SSE 10.4 mph - N/A   Clear
1:14 AM 44.6 °F 40.2 °F 32.0 °F 61% 30.07 in 10.0 mi SSE 8.1 mph - N/A   Clear
1:33 AM 44.6 °F 39.2 °F 33.8 °F 66% 30.07 in 10.0 mi SSE 10.4 mph - N/A   Clear
1:53 AM 44.6 °F 38.8 °F 33.8 °F 66% 30.07 in 10.0 mi SSE 11.5 mph 17.3 mph N/A   Scattered Clouds
2:14 AM 44.6 °F 38.8 °F 33.8 °F 66% 30.07 in 10.0 mi SSE 11.5 mph - N/A   Scattered Clouds
2:33 AM 44.6 °F 38.1 °F 32.0 °F 61% 30.07 in 10.0 mi SSE 13.8 mph 17.3 mph N/A   Clear
2:53 AM 42.8 °F 37.0 °F 32.0 °F 66% 30.06 in 10.0 mi SSE 10.4 mph - N/A   Clear
3:13 AM 42.8 °F 36.6 °F 32.0 °F 66% 30.05 in 10.0 mi SSE 11.5 mph 17.3 mph N/A   Clear
3:33 AM 42.8 °F 37.0 °F 32.0 °F 66% 30.05 in 10.0 mi SSE 10.4 mph - N/A   Clear
3:53 AM 42.8 °F 37.5 °F 32.0 °F 66% 30.04 in 10.0 mi SSE 9.2 mph - N/A   Clear
4:13 AM 42.8 °F 38.0 °F 32.0 °F 66% 30.04 in 10.0 mi SSE 8.1 mph - N/A   Clear
4:34 AM 42.8 °F 39.3 °F 32.0 °F 66% 30.04 in 10.0 mi SSE 5.8 mph - N/A   Clear
4:53 AM 41.0 °F 38.0 °F 32.0 °F 70% 30.05 in 10.0 mi SE 4.6 mph - N/A   Clear
5:13 AM 39.2 °F 35.0 °F 32.0 °F 75% 30.05 in 10.0 mi SE 5.8 mph - N/A   Clear
5:33 AM 39.2 °F 35.0 °F 32.0 °F 75% 30.04 in 10.0 mi SE 5.8 mph - N/A   Clear
5:53 AM 39.2 °F 34.2 °F 32.0 °F 75% 30.04 in 10.0 mi SSE 6.9 mph - N/A   Clear
6:14 AM 41.0 °F 35.8 °F 32.0 °F 70% 30.03 in 10.0 mi SSE 8.1 mph - N/A   Clear
6:33 AM 39.2 °F 34.2 °F 30.2 °F 70% 30.03 in 10.0 mi SE 6.9 mph - N/A   Clear
6:53 AM 39.2 °F 34.2 °F 30.2 °F 70% 30.03 in 10.0 mi SSE 6.9 mph - N/A   Clear
7:13 AM 39.2 °F 35.0 °F 30.2 °F 70% 30.03 in 10.0 mi SE 5.8 mph - N/A   Clear
7:33 AM 39.2 °F 35.0 °F 30.2 °F 70% 30.03 in 10.0 mi SE 5.8 mph - N/A   Clear
7:53 AM 39.2 °F 34.2 °F 30.2 °F 70% 30.03 in 10.0 mi SE 6.9 mph - N/A   Clear
8:13 AM 39.2 °F 34.2 °F 30.2 °F 70% 30.03 in 10.0 mi SE 6.9 mph - N/A   Clear
8:34 AM 39.2 °F 35.0 °F 30.2 °F 70% 30.03 in 10.0 mi SE 5.8 mph - N/A   Clear
8:53 AM 41.0 °F 35.8 °F 32.0 °F 70% 30.03 in 10.0 mi SSE 8.1 mph - N/A   Clear
9:13 AM 42.8 °F 38.0 °F 30.2 °F 61% 30.03 in 10.0 mi SE 8.1 mph - N/A   Clear
9:34 AM 42.8 °F 38.0 °F 30.2 °F 61% 30.02 in 10.0 mi SSE 8.1 mph - N/A   Clear
9:53 AM 44.6 °F 40.2 °F 32.0 °F 61% 30.02 in 10.0 mi SSE 8.1 mph - N/A   Clear
10:13 AM 44.6 °F 39.7 °F 32.0 °F 61% 30.02 in 10.0 mi SSE 9.2 mph - N/A   Clear
10:33 AM 46.4 °F 40.7 °F 32.0 °F 57% 30.03 in 10.0 mi South 12.7 mph 17.3 mph N/A   Clear
10:54 AM 46.4 °F 40.4 °F 32.0 °F 57% 30.03 in 10.0 mi South 13.8 mph - N/A   Clear
11:13 AM 46.4 °F 40.7 °F 32.0 °F 57% 30.02 in 10.0 mi South 12.7 mph - N/A   Clear
11:33 AM 48.2 °F - 32.0 °F 54% 30.02 in 10.0 mi South 10.4 mph - N/A   Clear
11:54 AM 48.2 °F - 32.0 °F 54% 30.01 in 10.0 mi SSE 10.4 mph - N/A   Clear
12:13 PM 48.2 °F - 32.0 °F 54% 30.01 in 10.0 mi South 10.4 mph - N/A   Clear
12:33 PM 50.0 °F - 33.8 °F 54% 30.01 in 10.0 mi South 10.4 mph - N/A   Clear
12:54 PM 50.0 °F - 32.0 °F 50% 30.00 in 10.0 mi SSE 11.5 mph - N/A   Clear
1:13 PM 51.8 °F - 33.8 °F 50% 30.00 in 10.0 mi SE 10.4 mph - N/A   Clear
1:33 PM 51.8 °F - 33.8 °F 50% 29.99 in 10.0 mi SSE 8.1 mph - N/A   Clear
1:54 PM 51.8 °F - 33.8 °F 50% 29.99 in 10.0 mi South 11.5 mph - N/A   Clear
2:13 PM 51.8 °F - 33.8 °F 50% 29.99 in 10.0 mi South 10.4 mph - N/A   Clear
2:33 PM 51.8 °F - 33.8 °F 50% 29.99 in 10.0 mi South 9.2 mph - N/A   Clear
2:53 PM 51.8 °F - 33.8 °F 50% 29.99 in 10.0 mi SSE 10.4 mph - N/A   Clear
3:13 PM 51.8 °F - 33.8 °F 50% 29.99 in 10.0 mi SSE 8.1 mph - N/A   Clear
3:34 PM 51.8 °F - 33.8 °F 50% 29.99 in 10.0 mi SSE 9.2 mph - N/A   Clear
3:53 PM 51.8 °F - 33.8 °F 50% 30.00 in 10.0 mi SSE 10.4 mph - N/A   Clear
4:13 PM 51.8 °F - 33.8 °F 50% 30.00 in 10.0 mi SSE 6.9 mph - N/A   Clear
4:34 PM 48.2 °F - 33.8 °F 58% 30.00 in 10.0 mi SSE 5.8 mph - N/A   Clear
4:53 PM 48.2 °F - 33.8 °F 58% 30.00 in 10.0 mi SE 5.8 mph - N/A   Clear
5:13 PM 46.4 °F 44.3 °F 33.8 °F 62% 30.00 in 10.0 mi SE 4.6 mph - N/A   Clear
5:34 PM 46.4 °F 44.3 °F 33.8 °F 62% 30.01 in 10.0 mi SE 4.6 mph - N/A   Clear
5:53 PM 46.4 °F 44.3 °F 33.8 °F 62% 30.01 in 10.0 mi SE 4.6 mph - N/A   Clear
6:13 PM 46.4 °F 43.5 °F 33.8 °F 62% 30.01 in 10.0 mi SE 5.8 mph - N/A   Clear
6:34 PM 44.6 °F 41.4 °F 33.8 °F 66% 30.01 in 10.0 mi SE 5.8 mph - N/A   Clear
6:53 PM 46.4 °F 42.9 °F 33.8 °F 62% 30.00 in 10.0 mi SSE 6.9 mph - N/A   Scattered Clouds
7:13 PM 46.4 °F 42.9 °F 33.8 °F 62% 30.00 in 10.0 mi SSE 6.9 mph - N/A   Scattered Clouds
7:33 PM 48.2 °F - 33.8 °F 58% 30.00 in 10.0 mi SSE 9.2 mph - N/A   Scattered Clouds
7:54 PM 48.2 °F - 33.8 °F 58% 30.00 in 10.0 mi SSE 9.2 mph - N/A   Mostly Cloudy
8:13 PM 46.4 °F 41.9 °F 33.8 °F 62% 30.00 in 10.0 mi SSE 9.2 mph - N/A   Mostly Cloudy
8:33 PM 46.4 °F 43.5 °F 33.8 °F 62% 30.00 in 10.0 mi SE 5.8 mph - N/A   Overcast
8:54 PM 46.4 °F 42.4 °F 33.8 °F 62% 30.00 in 10.0 mi SSE 8.1 mph - N/A   Mostly Cloudy
9:13 PM 46.4 °F 42.4 °F 33.8 °F 62% 30.00 in 10.0 mi SSE 8.1 mph - N/A   Mostly Cloudy
9:33 PM 46.4 °F 41.9 °F 33.8 °F 62% 30.00 in 10.0 mi SSE 9.2 mph - N/A   Scattered Clouds
9:54 PM 46.4 °F 42.4 °F 33.8 °F 62% 30.00 in 10.0 mi SSE 8.1 mph - N/A   Scattered Clouds
10:13 PM 46.4 °F 42.4 °F 33.8 °F 62% 30.00 in 10.0 mi SSE 8.1 mph - N/A   Scattered Clouds
10:33 PM 46.4 °F 41.9 °F 33.8 °F 62% 30.00 in 10.0 mi SSE 9.2 mph - N/A   Scattered Clouds
11:13 PM 46.4 °F 42.4 °F 33.8 °F 62% 29.99 in 10.0 mi SSE 8.1 mph - N/A   Mostly Cloudy
11:33 PM 46.4 °F 42.4 °F 33.8 °F 62% 30.00 in 10.0 mi SSE 8.1 mph - N/A   Scattered Clouds
11:54 PM 46.4 °F 42.4 °F 33.8 °F 62% 30.00 in 10.0 mi SSE 8.1 mph - N/A   Scattered Clouds